Rockland, ME

5:21 PM EST on November 18, 2017 (GMT -0500)
Knox County Regional

Weather History for KRKD - November, 2013

Change the Weather History Date:

Sunday, November 10, 2013

  Actual Average Record
Temperature  
Mean Temperature 37 °F -  
Max Temperature 44 °F 44 °F 59 °F (2002)
Min Temperature 30 °F 32 °F 19 °F (2003)
Degree Days  
Heating Degree Days 28    
Moisture  
Dew Point 37 °F    
Average Humidity 89    
Maximum Humidity 100    
Minimum Humidity 75    
Precipitation  
Precipitation 0.11 in - - ()
Sea Level Pressure  
Sea Level Pressure 29.82 in    
Wind  
Wind Speed 5 mph (WSW)    
Max Wind Speed 13 mph    
Max Gust Speed 16 mph    
Visibility 9 miles    
Events      
Averages and records for this station are not official NWS values.
T = Trace of Precipitation, MM = Missing Value Source: NWS Daily Summary

Daily Weather History Graph

Daily Weather History Graph

Search for Another Location

Airport or City:

Trip Planner

Search our weather history database for the weather conditions in past years. The results will help you decide how hot, cold, wet, or windy it might be!

Date:

Astronomy

Nov. 10, 2013 Rise Set
Actual Time 6:25 AM EST 4:14 PM EST
Civil Twilight 5:54 AM EST 4:45 PM EST
Nautical Twilight 5:19 AM EST 5:20 PM EST
Astronomical Twilight 4:45 AM EST 5:54 PM EST
Moon 12:32 PM EST (11/10) 11:55 PM EST (11/10)
Length of Visible Light 10h 51m
Length of Day
9h 49m
First Quarter, 55% of the Moon is Illuminated
Nov 10
First Quarter
Nov 17
Full
Nov 25
Last Quarter
Dec 2
New
Dec 9
First Quarter

Hourly Weather History & Observations

Time (EST) Temp. Windchill Dew Point Humidity Pressure Visibility Wind Dir Wind Speed Gust Speed Precip Events Conditions
12:15 AM 30.2 °F 26.7 °F 26.6 °F 86% 30.08 in 10.0 mi West 3.5 mph - N/A   Mostly Cloudy
12:35 AM 30.2 °F 26.7 °F 26.6 °F 86% 30.08 in 10.0 mi West 3.5 mph - N/A   Partly Cloudy
12:55 AM 30.2 °F - 24.8 °F 80% 30.07 in 10.0 mi Calm Calm - N/A   Mostly Cloudy
1:15 AM 30.2 °F 26.7 °F 26.6 °F 86% 30.06 in 10.0 mi West 3.5 mph - N/A   Scattered Clouds
1:35 AM 30.2 °F - 26.6 °F 86% 30.05 in 10.0 mi Calm Calm - N/A   Partly Cloudy
1:55 AM 30.2 °F - 26.6 °F 86% 30.04 in 10.0 mi Calm Calm - N/A   Mostly Cloudy
2:15 AM 30.2 °F - 28.4 °F 93% 30.03 in 10.0 mi Calm Calm - N/A   Overcast
2:35 AM 32.0 °F - 28.4 °F 87% 30.01 in 10.0 mi Calm Calm - N/A   Partly Cloudy
2:55 AM 32.0 °F - 28.4 °F 87% 30.00 in 10.0 mi Calm Calm - N/A   Partly Cloudy
3:15 AM 32.0 °F - 28.4 °F 87% 29.99 in 10.0 mi Calm Calm - N/A   Mostly Cloudy
3:35 AM 32.0 °F 27.5 °F 28.4 °F 87% 29.98 in 10.0 mi NNE 4.6 mph - N/A   Overcast
3:55 AM 33.8 °F - 28.4 °F 81% 29.97 in 10.0 mi Calm Calm - N/A   Overcast
4:15 AM 37.4 °F 33.8 °F 30.2 °F 75% 29.96 in 10.0 mi SE 4.6 mph - N/A   Overcast
4:35 AM 39.2 °F 34.2 °F 33.8 °F 81% 29.96 in 10.0 mi SE 6.9 mph - N/A   Overcast
4:55 AM 41.0 °F 34.3 °F 33.8 °F 76% 29.95 in 10.0 mi ESE 11.5 mph - N/A   Overcast
5:15 AM 41.0 °F 34.7 °F 35.6 °F 81% 29.94 in 10.0 mi ESE 10.4 mph - N/A   Overcast
5:35 AM 41.0 °F 34.3 °F 35.6 °F 81% 29.93 in 10.0 mi SE 11.5 mph - N/A   Overcast
5:55 AM 42.8 °F 38.0 °F 35.6 °F 76% 29.93 in 10.0 mi SE 8.1 mph - N/A   Overcast
6:15 AM 41.0 °F 38.0 °F 37.4 °F 87% 29.92 in 10.0 mi South 4.6 mph - N/A   Overcast
6:35 AM 42.8 °F 37.0 °F 37.4 °F 81% 29.92 in 10.0 mi SSE 10.4 mph - N/A   Overcast
6:55 AM 42.8 °F 36.2 °F 37.4 °F 81% 29.91 in 10.0 mi SE 12.7 mph - N/A   Overcast
7:15 AM 42.8 °F 38.0 °F 39.2 °F 87% 29.91 in 5.0 mi SSE 8.1 mph - 0.03 in   Overcast
7:35 AM 42.8 °F 38.6 °F 39.2 °F 87% 29.90 in 10.0 mi SSE 6.9 mph - 0.03 in   Overcast
7:55 AM 44.6 °F 39.2 °F 41.0 °F 87% 29.88 in 10.0 mi South 10.4 mph 16.1 mph 0.03 in   Overcast
8:15 AM 44.6 °F 43.1 °F 41.0 °F 87% 29.87 in 5.0 mi SE 3.5 mph - 0.03 in   Overcast
8:35 AM 44.6 °F 42.2 °F 41.0 °F 87% 29.86 in 8.0 mi South 4.6 mph - 0.04 in   Overcast
8:55 AM 44.6 °F 42.2 °F 42.8 °F 93% 29.85 in 6.0 mi SW 4.6 mph - 0.06 in   Overcast
9:15 AM 44.6 °F 43.1 °F 42.8 °F 93% 29.84 in 10.0 mi South 3.5 mph - N/A   Overcast
9:35 AM 44.6 °F 42.2 °F 42.8 °F 93% 29.83 in 10.0 mi SSW 4.6 mph - N/A   Overcast
9:55 AM 44.6 °F 41.4 °F 42.8 °F 93% 29.82 in 10.0 mi WSW 5.8 mph - 0.01 in   Overcast
10:15 AM 44.6 °F 39.2 °F 42.8 °F 93% 29.82 in 10.0 mi West 10.4 mph - N/A   Overcast
10:35 AM 44.6 °F 38.4 °F 41.0 °F 87% 29.80 in 10.0 mi West 12.7 mph - N/A   Overcast
10:55 AM 44.6 °F 39.7 °F 42.8 °F 93% 29.80 in 10.0 mi West 9.2 mph - N/A   Overcast
11:15 AM 44.6 °F 40.7 °F 42.8 °F 93% 29.78 in 10.0 mi West 6.9 mph - N/A   Overcast
11:35 AM 44.6 °F 41.4 °F 41.0 °F 87% 29.77 in 10.0 mi West 5.8 mph - N/A   Overcast
11:55 AM 42.8 °F 40.1 °F 39.2 °F 87% 29.77 in 10.0 mi West 4.6 mph - N/A   Overcast
12:15 PM 42.8 °F 41.1 °F 39.2 °F 87% 29.76 in 10.0 mi West 3.5 mph - N/A   Overcast
12:35 PM 44.6 °F 42.2 °F 41.0 °F 87% 29.74 in 10.0 mi West 4.6 mph - N/A   Overcast
12:55 PM 44.6 °F 43.1 °F 39.2 °F 81% 29.74 in 10.0 mi SW 3.5 mph - N/A   Mostly Cloudy
1:15 PM 44.6 °F 42.2 °F 39.2 °F 81% 29.73 in 10.0 mi SW 4.6 mph - N/A   Mostly Cloudy
1:35 PM 44.6 °F - 39.2 °F 81% 29.72 in 10.0 mi Calm Calm - N/A   Overcast
1:55 PM 44.6 °F 41.4 °F 41.0 °F 87% 29.72 in 10.0 mi WSW 5.8 mph - N/A   Overcast
2:15 PM 44.6 °F - 42.8 °F 93% 29.71 in 9.0 mi Calm Calm - 0.01 in   Overcast
2:35 PM 44.6 °F 43.1 °F 42.8 °F 93% 29.72 in 10.0 mi WNW 3.5 mph - 0.01 in   Overcast
2:55 PM 44.6 °F - 42.8 °F 93% 29.72 in 10.0 mi Calm Calm - 0.01 in   Overcast
3:15 PM 44.6 °F 43.1 °F 42.8 °F 93% 29.72 in 10.0 mi West 3.5 mph - N/A   Partly Cloudy
3:35 PM 44.6 °F 42.2 °F 42.8 °F 93% 29.72 in 10.0 mi WSW 4.6 mph - N/A   Clear
3:55 PM 42.8 °F 40.1 °F 42.8 °F 100% 29.71 in 8.0 mi West 4.6 mph - N/A   Clear
4:15 PM 42.8 °F 39.3 °F 41.0 °F 93% 29.71 in 5.0 mi West 5.8 mph - N/A   Clear
4:35 PM 42.8 °F 40.1 °F 41.0 °F 93% 29.71 in 7.0 mi WNW 4.6 mph - N/A   Clear
4:55 PM 42.8 °F 39.3 °F 41.0 °F 93% 29.72 in 9.0 mi West 5.8 mph - N/A   Mostly Cloudy
5:15 PM 42.8 °F 40.1 °F 41.0 °F 93% 29.72 in 9.0 mi West 4.6 mph - N/A   Overcast
5:35 PM 42.8 °F 38.6 °F 39.2 °F 87% 29.72 in 10.0 mi West 6.9 mph - N/A   Overcast
5:55 PM 42.8 °F 38.6 °F 41.0 °F 93% 29.72 in 10.0 mi WNW 6.9 mph - N/A   Overcast
6:15 PM 41.0 °F 36.4 °F 39.2 °F 93% 29.73 in 10.0 mi West 6.9 mph - N/A   Mostly Cloudy
6:35 PM 41.0 °F 36.4 °F 39.2 °F 93% 29.72 in 10.0 mi West 6.9 mph - N/A   Scattered Clouds
6:55 PM 39.2 °F 35.9 °F 37.4 °F 93% 29.72 in 6.0 mi West 4.6 mph - N/A   Mostly Cloudy
7:15 PM 37.4 °F 34.9 °F 37.4 °F 100% 29.72 in 3.0 mi WSW 3.5 mph - N/A   Scattered Clouds
7:35 PM 37.4 °F 34.9 °F 35.6 °F 93% 29.72 in 1.8 mi West 3.5 mph - N/A   Mostly Cloudy
7:55 PM 37.4 °F 32.8 °F 37.4 °F 100% 29.71 in 4.0 mi West 5.8 mph - N/A   Overcast
8:15 PM 39.2 °F 35.0 °F 37.4 °F 93% 29.71 in 8.0 mi West 5.8 mph - N/A   Mostly Cloudy
8:35 PM 37.4 °F 32.8 °F 35.6 °F 93% 29.71 in 5.0 mi West 5.8 mph - N/A   Mostly Cloudy
8:55 PM 39.2 °F 35.0 °F 37.4 °F 93% 29.71 in 8.0 mi West 5.8 mph - N/A   Mostly Cloudy
9:15 PM 37.4 °F 31.4 °F 35.6 °F 93% 29.71 in 5.0 mi West 8.1 mph - N/A   Mostly Cloudy
9:35 PM 37.4 °F 31.4 °F 37.4 °F 100% 29.71 in 6.0 mi West 8.1 mph - N/A   Mostly Cloudy
9:55 PM 37.4 °F 32.1 °F 35.6 °F 93% 29.71 in 6.0 mi West 6.9 mph - N/A   Clear
10:15 PM 37.4 °F 32.1 °F 35.6 °F 93% 29.71 in 9.0 mi WNW 6.9 mph - N/A   Clear
10:35 PM 37.4 °F 30.8 °F 35.6 °F 93% 29.71 in 9.0 mi West 9.2 mph - N/A   Mostly Cloudy
10:55 PM 37.4 °F 30.8 °F 35.6 °F 93% 29.71 in 9.0 mi West 9.2 mph - N/A   Scattered Clouds
11:15 PM 37.4 °F 32.1 °F 35.6 °F 93% 29.71 in 8.0 mi West 6.9 mph - N/A   Clear
11:35 PM 35.6 °F 28.6 °F 35.6 °F 100% 29.72 in 7.0 mi West 9.2 mph - N/A   Clear
11:55 PM 35.6 °F 29.2 °F 33.8 °F 93% 29.72 in 5.0 mi West 8.1 mph - N/A   Clear